Погода в Буке

Папуа-Новая Гвинея     5°25′20″S   154°40′34″E
темп.,
°C
ветер,
м/с
пор.,
м/с
влажн.,
%
обл.,
%
осадки,
мм/ч
давл.,
гПа
погр.,
м
9 мая, вс
вс901:00+27вюв347896 0.5 1007329
04:00+27юв44755 0.5 1006283
07:00+27юв237195 0.0 1008313
10:00+30в146676 0.0 1008783
13:00+30в366799 0.9 1005865
16:00+29юв347463 2.6 1005662
19:00+28юв3477100 0.2 1007426
22:00+27вюв3477100 0.3 1008286
10 мая, пн
пн1001:00+26юв23775 0.2 1006207
04:00+26ююв227552 0.6 1006231
07:00+27вюв227131 0.6 1008254
10:00+29всв246625 0.9 1008793
13:00+30всв676563 0.5 1005965
16:00+29всв56705 0.9 1005613
19:00+28вюв34785 0.1 1008493
22:00+27юв33795 0.1 1009364
11 мая, вт
вт1101:00+26ююв22765 0.0 1008277
04:00+25юв22766 0.7 100872
07:00+26в2271100 0.1 1010170
10:00+29всв246611 0.1 1009775
13:00+29св567087 1.3 1007824
16:00+29св77742 2.4 1006683
19:00+27вюв457812 0.0 1009493
22:00+26вюв33785 0.0 1010316
12 мая, ср
ср1201:00+26юв23774 0.0 1008201
04:00+26вюв23745 0.0 1008208
07:00+26юв22690 0.0 1010163
10:00+28ссз116678 0.0 1010538
13:00+28ссв127135 0.2 1008700
16:00+28всв227529 1.4 1007516
19:00+27в237894 0.9 1009412
22:00+26вюв2279100 2.1 1010254
13 мая, чт
чт1301:00+26юв2280100 0.0 1009192
04:00+26юв117828 0.0 1008137
07:00+26юв2277100 0.0 1010153
10:00+28св226744 0.0 1010540
13:00+28ссв337257 0.0 1007666
16:00+28всв237175 0.1 1007578
19:00+27всв227394 0.0 1009569
22:00+27св3476100 0.1 1010563